Location: Fours
(44.3167°N, 6.7000°E)
Time: 23:43:56
(UTC+00:00)

ATLAS 5 CENTAUR R/B - Pass Details

Date: 16 October 2021
Orbit: 497 x 1159 km, 63.4° (Epoch: 25 November)

Event Time Altitude Azimuth Distance (km) Brightness Sun altitude
Rises 18:39:16 0° 219° (SW) 2,582 5.2 -20.8°
Reaches altitude 10° 18:41:20 10° 220° (SW) 1,725 4.2 -21.1°
Maximum altitude 18:45:07 79° 307° (NW) 557 1.3 -21.8°
Enters shadow 18:46:05 51° 24° (NNE) 701 1.6 -22.0°
